Current Version              Previous Version:    01  02  03  04  05  06  07  08  09  10  11  12  13  14  15  16  17  18  19  20  21  22  23  24  25  26  27  28  29  30  
   31  32  33  34  35  36  37  38  39  40  41  42  43  44  45  46  47  48  49  50  51  52  53  54  55  56  57  58  59  60  

[Printable]
035
ASUS44 KEWX 290102
RWRTX
SOUTH TEXAS REGIONAL WEATHER ROUNDUP
NATIONAL WEATHER SERVICE AUSTIN/SAN ANTONIO TX
700 PM CST FRI NOV 28 2014

NOTE: "FAIR" INDICATED FEW OR NO CLOUDS BELOW 12,000 FEET WITH NO
SIGNIFICANT WEATHER AND/OR OBSTRUCTIONS TO VISIBILITY.

* - THESE STATIONS ARE NOT NWS OR FAA STATIONS...AND ARE NOT SUBJECT
    TO NWS AND FAA QUALITY CONTROL.

TXZ171-172-183>190-290200-
TEXAS HILL COUNTRY AND EDWARDS PLATEAU

CITY           SKY/WX    TMP DP  RH WIND       PRES   REMARKS
JUNCTION       CLEAR     59  41  51 SE3       30.10R
*LLANO         CLEAR     61  45  55 S3        30.13R
BURNET         CLEAR     59  45  59 S6        30.12S
*HORSESHOE BAY CLEAR     55  46  70 CALM      30.11S
*KERRVILLE     CLEAR     59  48  67 SE5       30.13S
*FREDERICKSBRG CLEAR     57  45  63 S5        30.12S
*ROCKSPRINGS   CLEAR     55  45  67 MISG      30.14S
*BOERNE STAGE  CLEAR     54  39  58 CALM      30.14S
*CASTROVILLE   CLEAR     63  45  52 CALM      30.13S
HONDO          CLEAR     61  47  59 S3        30.14R
*UVALDE        CLEAR     58  46  65 CALM      30.12S
DEL RIO        CLEAR     63  44  50 SE8       30.08R
LAUGHLIN AFB   CLEAR     57  46  66 SE7       30.09S
CARRIZO SPRGS  CLEAR     59  45  58 S5        30.10R
$$

TXZ173-191>194-202-209-217>225-228-290200-
CENTRAL AND SOUTH CENTRAL TEXAS

CITY           SKY/WX    TMP DP  RH WIND       PRES   REMARKS
GEORGETOWN     CLEAR     63  45  51 S10       30.10S
AUSTIN/BERGSTM CLEAR     54  46  74 S3        30.11S
AUSTIN/MABRY   CLEAR     62  47  57 CALM      30.12S
*AUSTIN/EXEC   CLEAR     63  46  55 S5        30.12R
*LAGO VISTA    CLEAR     64  47  54 S8        30.12S
SAN MARCOS     CLEAR     61  46  59 S8        30.12S
NEW BRAUNFELS  CLEAR     58  46  64 S8        30.11S
RANDOLPH AFB   CLEAR     61  47  60 SE6       30.12S
PT SAN ANTONIO CLEAR     59  47  65 S3        30.10S
SAN ANTONIO    PTCLDY    65  47  52 S7        30.12S
STINSON FIELD  CLEAR     60  47  61 SE5       30.11R
*PLEASANTON    CLEAR     59  47  66 CALM      30.13R
*LA GRANGE     CLEAR     63  52  68 S5        30.12R
*GIDDINGS      CLEAR     62  49  62 S5        30.16S
*GONZALES      CLEAR     64  49  59 S7        30.12S
$$

TXZ163>164-176>182-195>201-210>213-226-227-235-290200-
SOUTHEAST TEXAS

CITY           SKY/WX    TMP DP  RH WIND       PRES   REMARKS
COLLEGE STN    CLEAR     63  53  70 S8        30.12S
*BRYAN         CLEAR     64  53  68 S8        30.13S
*CALDWELL      CLEAR     61  50  67 S7        30.14F
*CROCKETT      PTCLDY    63  57  82 S6        30.16S
*BRENHAM       CLEAR     65  55  69 S6        30.14F
HUNTSVILLE     CLEAR     62  54  74 SE6       30.14S
CONROE         CLEAR     59  54  83 SE7       30.16F
HOUSTON BUSH   CLEAR     62  55  77 S7        30.17S
HOUSTON HOBBY  PTCLDY    62  56  80 SE5       30.17S
*HOUSTON SW AP CLEAR     56  54  91 SE7       30.18S
PEARLAND       CLEAR     64  57  78 SE6       30.19S
HOUSTON HOOKS  CLEAR     62  54  74 SE5       30.16F
ELLINGTON FLD  PTCLDY    64  59  82 SE5       30.19F
SUGAR LAND     CLEAR     61  55  81 S7        30.16S
*HOUSTON EXEC  CLEAR     59  55  88 S7        30.17R
*CLEVELAND MUN CLEAR     59  56  89 S3        30.18S
*WHARTON       CLEAR     61  56  83 S6        30.17R
*COLUMBUS      FAIR      64  54  70 S8        30.14R
$$

TXZ214>216-236>238-290200-
THE UPPER TEXAS COAST

CITY           SKY/WX    TMP DP  RH WIND       PRES   REMARKS
*ORANGE        CLOUDY    58  58 100 SE6       30.23S
PORT ARTHUR    CLOUDY    60  57  89 SE12      30.20F
GALVESTON      MOCLDY    64  60  87 SE9       30.19F
ANGLETON       CLEAR     58  57  97 CALM      30.18R
*BAY CITY        N/A     61  57  87 S5        30.16F
PALACIOS       CLEAR     59  55  87 SE8       30.17S
$$

TXZ229>234-239>247-290200-
TEXAS COASTAL BEND AND RIO GRANDE PLAINS

CITY           SKY/WX    TMP DP  RH WIND       PRES   REMARKS
VICTORIA       CLEAR     62  52  69 S8        30.16S
*BEEVILLE      CLEAR     63  53  71 SE9       30.14R
ROCKPORT       CLEAR     63  60  90 SE6       30.16R
*PORT ARANSAS  CLEAR     65  61  84 SE6       30.15S
*PORT LAVACA   CLEAR     59  55  85 SE7       30.17S
*INGLESIDE     CLEAR     63  58  83 SE8       30.15S
CORPUS CHRISTI CLEAR     64  57  78 SE9       30.15R
CORPUS NAS     CLEAR     66  61  84 SE12      30.15S
*ROBSTOWN      NOT AVBL
ALICE          CLEAR     64  55  72 SE10      30.13S
KINGSVILLE NAS CLEAR     64  58  80 SE9       30.14S
COTULLA        CLEAR     65  47  52 SE3       30.11S
*FAITH RANCH   CLEAR     64  45  48 SE7       30.11S
LAREDO         CLEAR     63  51  64 SE5       30.14R
$$

TXZ248>255-290200-
DEEP SOUTH TEXAS

CITY           SKY/WX    TMP DP  RH WIND       PRES   REMARKS
BROWNSVILLE    CLEAR     64  59  83 SE8       30.17R
PORT ISABEL    CLEAR     65  59  81 SE9       30.17R
*SOUTH PADRE   CLEAR    N/A N/A N/A SE6       30.17R
HARLINGEN      CLEAR     63  57  81 SE9       30.16R
*HEBBRONVILLE  CLEAR     64  51  62 SE7       30.13S
MCALLEN        CLEAR     66  55  67 SE10      30.15R
*WESLACO       CLEAR     67  54  61 SE12      30.15R
FALFURRIAS     CLEAR     65  57  73 E6        30.13S
EDINBURG       CLEAR     66  55  66 SE7       30.15R
*ZAPATA        CLEAR     62  48  61 CALM      30.11R
$$

TXZ213>215-236>238-242>244-246-247-251-254-255-290200-
CMAN STATIONS

STATION/POSITION TIME  TEMP    WIND        PRES    WAVE
                       AIR SEA DIR/SP/G            HT/PER
                 (UTC) (F)     (DEG/KT/KT) (MB)    (FT/S)
SABINE PASS      0000   61 58  130/  8/ 10 1022.8
SEA RIM ST PARK  0000   61     120/  5/  6 1023.4
NORTH JETTY/GLS  0000   63 61  160/  8/  9   N/A
EAGLE POINT      0000   61 60  160/  6/  8 1022.0
MORGANS POINT    0000   61     130/  5/  6 1022.0
MISSION/ARANSAS  0000   64     150/  7     1022.0
PORT O`CONNOR    0000          130/  4/  5   N/A
PORT ARANSAS     0000   67 65  140/  9/ 10 1022.0
MALAQUITE BEACH  0000   67 67  140/ 12/ 13 1020.4
BAFFIN BAY       0000   67 79  150/ 12/ 14 1020.9
PORT ISABEL      0000   68 65  150/  8/ 10 1021.5
$$

GMZ080-GMZ150>470-290200-
OFFSHORE BUOY REPORTS

STATION/POSITION TIME  TEMP    WIND        PRES    WAVE
                       AIR SEA DIR/SP/G            HT/PER
                 (UTC) (F)     (DEG/KT/KT) (MB)    (FT/S)
20 E GALVESTON   0100   63 62  140/  6/  6 1022.3    2/ 4
90 E PT ARANSAS  0100   71 72  170/ 14/ 16 1022.7    3/ 4
35 NE PT MANSFLD 0000   72 73  170/ 14/ 17 1021.3    2/ 3
200 E PT ISABEL  0000   70 74  130/  8/ 12 1023.4    2/ 6
$$